Weather History for Beatrice, NE

Change the Weather History Date:

Sunday, November 9, 2014

  Actual Average Record
Temperature  
Mean Temperature 50 °F -  
Max Temperature 64 °F 54 °F 75 °F (1999)
Min Temperature 37 °F 34 °F 15 °F (2008)
Degree Days  
Heating Degree Days 14    
Moisture  
Dew Point 35 °F    
Average Humidity 57    
Maximum Humidity 75    
Minimum Humidity 38    
Precipitation  
Precipitation 0.00 in - - ()
Sea Level Pressure  
Sea Level Pressure 29.76 in    
Wind  
Wind Speed 7 mph (South)    
Max Wind Speed 12 mph    
Max Gust Speed -    
Visibility 10 miles    
Events      
Averages and records for this station are not official NWS values.
T = Trace of Precipitation, MM = Missing Value Source: NWS Daily Summary

Daily Weather History Graph

Daily Weather History Graph

Search for Another Location

Airport:

Trip Planner

Search our weather history database for the weather conditions in past years. The results will help you decide how hot, cold, wet, or windy it might be!

Date:

Astronomy

Nov. 09, 2014 Rise Set
Actual Time 7:05 AM CST 5:15 PM CST
Civil Twilight 6:37 AM CST 5:44 PM CST
Nautical Twilight 6:04 AM CST 6:16 PM CST
Astronomical Twilight 5:32 AM CST 6:48 PM CST
Moon 7:49 PM CST (11/9) 9:39 AM CST (11/9)
Length of Visible Light 11h 06m
Length of Day
10h 09m
Waning Gibbous, 91% of the Moon is Illuminated
Nov 9
Waning Gibbous
Nov 14
Last Quarter
Nov 22
New
Nov 29
First Quarter
Dec 6
Full

Hourly Weather History & Observations

Time (CST) Temp. Windchill Dew Point Humidity Pressure Visibility Wind Dir Wind Speed Gust Speed Precip Events Conditions
12:15 AM 41.0 °F 34.3 °F 27.5 °F 59% 29.95 in 10.0 mi South 11.5 mph - N/A   Clear
12:35 AM 41.0 °F 34.7 °F 28.0 °F 60% 29.93 in 10.0 mi South 10.4 mph - N/A   Clear
12:55 AM 41.4 °F 35.7 °F 28.2 °F 60% 29.93 in 10.0 mi South 9.2 mph - N/A   Clear
1:15 AM 41.9 °F 36.3 °F 28.2 °F 58% 29.91 in 10.0 mi South 9.2 mph - N/A   Clear
1:35 AM 42.3 °F 36.3 °F 28.2 °F 58% 29.91 in 10.0 mi South 10.4 mph - N/A   Clear
1:55 AM 42.3 °F 36.3 °F 28.2 °F 58% 29.90 in 10.0 mi South 10.4 mph - N/A   Clear
2:15 AM 42.6 °F 37.2 °F 27.9 °F 56% 29.89 in 10.0 mi South 9.2 mph - N/A   Clear
2:35 AM 43.2 °F 38.4 °F 27.7 °F 54% 29.88 in 10.0 mi SSW 8.1 mph - N/A   Clear
2:55 AM 43.0 °F 38.8 °F 27.5 °F 54% 29.88 in 10.0 mi SSW 6.9 mph - N/A   Clear
3:15 AM 42.4 °F 37.0 °F 27.7 °F 56% 29.87 in 10.0 mi SSW 9.2 mph - N/A   Clear
3:35 AM 42.4 °F 36.5 °F 27.9 °F 56% 29.87 in 10.0 mi SSW 10.4 mph - N/A   Clear
3:55 AM 41.9 °F 36.9 °F 27.9 °F 58% 29.88 in 10.0 mi SSW 8.1 mph - N/A   Clear
4:15 AM 40.8 °F 36.9 °F 28.2 °F 61% 29.87 in 10.0 mi SSW 5.8 mph - N/A   Clear
4:35 AM 39.9 °F 34.5 °F 28.2 °F 63% 29.87 in 10.0 mi SW 8.1 mph - N/A   Clear
4:55 AM 39.7 °F 34.9 °F 28.4 °F 64% 29.87 in 10.0 mi SSW 6.9 mph - N/A   Clear
5:15 AM 38.8 °F 33.8 °F 28.6 °F 67% 29.86 in 10.0 mi SW 6.9 mph - N/A   Clear
5:35 AM 39.9 °F 35.8 °F 28.6 °F 64% 29.86 in 10.0 mi SW 5.8 mph - N/A   Clear
5:55 AM 41.0 °F 36.4 °F 30.2 °F 65% 29.86 in 10.0 mi SW 6.9 mph - N/A   Clear
6:15 AM 41.0 °F 38.0 °F 30.2 °F 65% 29.86 in 10.0 mi SSW 4.6 mph - N/A   Clear
6:35 AM 40.3 °F 36.3 °F 30.2 °F 67% 29.87 in 10.0 mi SW 5.8 mph - N/A   Clear
6:55 AM 39.4 °F 34.5 °F 30.2 °F 70% 29.87 in 10.0 mi SW 6.9 mph - N/A   Clear
7:15 AM 37.2 °F 32.6 °F 30.0 °F 75% 29.86 in 10.0 mi South 5.8 mph - N/A   Clear
7:35 AM 38.8 °F 36.5 °F 30.7 °F 73% 29.86 in 10.0 mi South 3.5 mph - N/A   Clear
7:55 AM 40.1 °F 38.0 °F 31.1 °F 70% 29.85 in 10.0 mi South 3.5 mph - N/A   Clear
8:15 AM 40.8 °F 36.9 °F 31.5 °F 69% 29.85 in 10.0 mi South 5.8 mph - N/A   Clear
8:35 AM 41.5 °F 39.6 °F 32.0 °F 69% 29.85 in 10.0 mi South 3.5 mph - N/A   Clear
8:55 AM 42.8 °F 39.3 °F 32.0 °F 66% 29.85 in 10.0 mi SSW 5.8 mph - N/A   Clear
9:15 AM 44.4 °F 41.2 °F 32.7 °F 64% 29.84 in 10.0 mi SSW 5.8 mph - N/A   Clear
9:35 AM 46.4 °F 42.4 °F 33.8 °F 62% 29.84 in 10.0 mi SSW 8.1 mph - N/A   Clear
9:55 AM 48.0 °F - 34.3 °F 59% 29.83 in 10.0 mi SSW 9.2 mph - N/A   Clear
10:15 AM 51.3 °F - 35.6 °F 55% 29.82 in 10.0 mi SW 9.2 mph - N/A   Clear
10:35 AM 52.9 °F - 35.8 °F 52% 29.82 in 10.0 mi SW 11.5 mph - N/A   Clear
10:50 AM 55.4 °F - 37.4 °F 51% 29.81 in 10.0 mi SW 5.8 mph - N/A   Clear
11:15 AM 55.0 °F - 37.0 °F 51% 29.80 in 10.0 mi WSW 6.9 mph - N/A   Clear
11:35 AM 56.5 °F - 37.0 °F 48% 29.79 in 10.0 mi WSW 5.8 mph - N/A   Clear
11:55 AM 57.4 °F - 37.0 °F 47% 29.78 in 10.0 mi West 5.8 mph - N/A   Clear
12:15 PM 58.3 °F - 37.0 °F 45% 29.77 in 10.0 mi WSW 4.6 mph - N/A   Clear
12:35 PM 59.4 °F - 37.8 °F 45% 29.75 in 10.0 mi West 3.5 mph - N/A   Clear
12:55 PM 61.2 °F - 38.8 °F 44% 29.74 in 10.0 mi Calm Calm - N/A   Clear
1:15 PM 62.1 °F - 38.3 °F 41% 29.73 in 10.0 mi SW 5.8 mph - N/A   Clear
1:35 PM 62.4 °F - 37.9 °F 40% 29.72 in 10.0 mi SSW 4.6 mph - N/A   Clear
1:55 PM 63.1 °F - 39.0 °F 41% 29.71 in 10.0 mi SSW 4.6 mph - N/A   Clear
2:15 PM 63.9 °F - 38.3 °F 39% 29.71 in 10.0 mi SSW 5.8 mph - N/A   Clear
2:35 PM 64.2 °F - 38.1 °F 38% 29.70 in 10.0 mi Calm Calm - N/A   Clear
2:55 PM 64.4 °F - 38.1 °F 38% 29.70 in 10.0 mi Calm Calm - N/A   Clear
3:15 PM 64.2 °F - 38.3 °F 38% 29.70 in 10.0 mi Calm Calm - N/A   Clear
3:35 PM 64.4 °F - 38.5 °F 38% 29.69 in 10.0 mi South 3.5 mph - N/A   Clear
3:55 PM 63.7 °F - 39.0 °F 40% 29.69 in 10.0 mi SSE 5.8 mph - N/A   Clear
4:15 PM 62.8 °F - 38.8 °F 41% 29.68 in 10.0 mi SSE 5.8 mph - N/A   Clear
4:35 PM 61.0 °F - 39.2 °F 45% 29.68 in 10.0 mi SSE 4.6 mph - N/A   Clear
4:55 PM 61.0 °F - 38.7 °F 44% 29.68 in 10.0 mi ESE 4.6 mph - N/A   Clear
5:15 PM 59.5 °F - 38.3 °F 45% 29.68 in 10.0 mi ESE 3.5 mph - N/A   Clear
5:35 PM 57.2 °F - 38.3 °F 49% 29.67 in 10.0 mi SE 5.8 mph - N/A   Clear
5:55 PM 55.9 °F - 38.3 °F 52% 29.67 in 10.0 mi SE 4.6 mph - N/A   Clear
6:15 PM 54.7 °F - 38.3 °F 54% 29.67 in 10.0 mi ESE 4.6 mph - N/A   Clear
6:35 PM 53.6 °F - 38.3 °F 56% 29.65 in 10.0 mi SE 6.9 mph - N/A   Clear
6:55 PM 54.5 °F - 38.3 °F 54% 29.65 in 10.0 mi SE 6.9 mph - N/A   Clear
7:15 PM 53.6 °F - 37.9 °F 55% 29.65 in 10.0 mi ESE 5.8 mph - N/A   Clear
7:35 PM 52.3 °F - 37.8 °F 58% 29.65 in 10.0 mi ESE 3.5 mph - N/A   Clear
7:55 PM 51.4 °F - 37.6 °F 59% 29.64 in 10.0 mi SE 3.5 mph - N/A   Clear
8:15 PM 51.1 °F - 37.8 °F 60% 29.63 in 10.0 mi ESE 4.6 mph - N/A   Clear
8:35 PM 49.6 °F - 37.8 °F 64% 29.63 in 10.0 mi SE 4.6 mph - N/A   Clear
8:55 PM 49.1 °F - 37.8 °F 65% 29.62 in 10.0 mi SE 4.6 mph - N/A   Clear
9:15 PM 49.3 °F - 38.1 °F 65% 29.61 in 10.0 mi SSE 6.9 mph - N/A   Clear
9:35 PM 50.4 °F - 38.5 °F 64% 29.61 in 10.0 mi SE 5.8 mph - N/A   Clear
9:55 PM 50.2 °F - 38.5 °F 64% 29.60 in 10.0 mi SSE 8.1 mph - N/A   Clear
10:15 PM 50.0 °F - 38.8 °F 66% 29.59 in 10.0 mi SSE 8.1 mph - N/A   Clear
10:35 PM 49.6 °F - 38.8 °F 66% 29.58 in 10.0 mi SSE 6.9 mph - N/A   Clear
10:55 PM 48.9 °F - 38.8 °F 68% 29.58 in 10.0 mi SE 6.9 mph - N/A   Clear
11:15 PM 48.4 °F - 39.2 °F 71% 29.56 in 10.0 mi SE 6.9 mph - N/A   Clear
11:35 PM 48.2 °F - 39.4 °F 72% 29.54 in 10.0 mi SSE 8.1 mph - N/A   Clear
11:55 PM 48.2 °F - 40.1 °F 74% 29.53 in 10.0 mi SSE 6.9 mph - N/A   Clear